This is the latest recevied weather packets stored in our database for station/object AB8Y-13. If no packets are shown the sender has not sent any weather packets the latest 10 day(s).
| Time | Temp. | Humidity | Pressure | Rain* | Wind** | Luminosity | Snow |
|---|---|---|---|---|---|---|---|
| 1777027178 | 13.33° C | 84% | 1008.7 hPa | 0 mm | - | 3 W/m² | - |
| 1777026875 | 12.78° C | 84% | 1008.7 hPa | 0 mm | - | 2 W/m² | - |
| 1777026571 | 12.78° C | 85% | 1008.8 hPa | 0 mm | - | 1 W/m² | - |
| 1777026266 | 12.78° C | 85% | 1008.7 hPa | 0 mm | - | 0 W/m² | - |
| 1777025964 | 12.78° C | 85% | 1008.7 hPa | 0 mm | - | 0 W/m² | - |
| 1777025660 | 12.78° C | 86% | 1008.8 hPa | 0 mm | - | 0 W/m² | - |
| 1777025356 | 12.78° C | 87% | 1008.6 hPa | 0 mm | - | 0 W/m² | - |
| 1777025052 | 12.78° C | 88% | 1008.6 hPa | 0 mm | - | 0 W/m² | - |
| 1777024751 | 12.22° C | 88% | 1008.7 hPa | 0 mm | - | 0 W/m² | - |
| 1777024448 | 12.78° C | 87% | 1008.8 hPa | 0 mm | - | 0 W/m² | - |
| 1777024144 | 12.22° C | 87% | 1008.9 hPa | 0 mm | - | 0 W/m² | - |
| 1777023840 | 12.78° C | 87% | 1008.9 hPa | 0 mm | - | 0 W/m² | - |
| 1777023537 | 12.78° C | 86% | 1009.1 hPa | 0 mm | - | 0 W/m² | - |
| 1777023233 | 12.78° C | 87% | 1008.8 hPa | 0 mm | - | 0 W/m² | - |
| 1777022930 | 13.33° C | 85% | 1009.1 hPa | 0 mm | - | 0 W/m² | - |
| 1777022625 | 13.33° C | 85% | 1008.9 hPa | 0 mm | - | 0 W/m² | - |
| 1777022321 | 13.33° C | 85% | 1009 hPa | 0 mm | - | 0 W/m² | - |
| 1777022017 | 13.33° C | 84% | 1008.9 hPa | 0 mm | - | 0 W/m² | - |
| 1777021713 | 13.33° C | 85% | 1008.7 hPa | 0 mm | - | 0 W/m² | - |
| 1777021410 | 13.33° C | 84% | 1008.9 hPa | 0 mm | - | 0 W/m² | - |
| 1777021107 | 13.33° C | 85% | 1008.8 hPa | 0 mm | - | 0 W/m² | - |
| 1777020802 | 13.33° C | 84% | 1009 hPa | 0 mm | - | 0 W/m² | - |
| 1777020498 | 13.89° C | 84% | 1008.8 hPa | 0 mm | - | 0 W/m² | - |
| 1777020194 | 13.89° C | 83% | 1009 hPa | 0 mm | - | 0 W/m² | - |
| 1777019891 | 13.89° C | 83% | 1008.9 hPa | 0 mm | - | 0 W/m² | - |
* Rain latest hour (hover to see other rain measurements)
** Current wind speed in m/s (hover to see current wind gust speed)